This demonstration page uses our WeatherBlox Daily Observations layout. Learn more.

Left ArrowRight Arrow

Hourly Observations for February 5, 2015

Temp ( °F °C ) Dew Point ( °F °C ) Humidity (%) Winds ( mph kmh ) Pressure ( in mb ) Visibility ( mi km ) Precip ( " mm )
12:51 am 00:51 Clear 48 8.9 40 4.4 74 74 S 8 13 30.09 1019 10 16 0.00 0.00
1:51 am 01:51 Clear 45 7.2 39 3.9 80 80 NNE 3 6 30.10 1019 10 16 0.00 0.00
2:51 am 02:51 Clear 45 7.2 38 3.3 77 77 E 3 6 30.09 1019 10 16 0.00 0.00
3:51 am 03:51 Clear 42 5.6 38 3.3 85 85 N 3 6 30.10 1019 10 16 0.00 0.00
4:51 am 04:51 Clear 42 5.6 37 2.8 82 82 ESE 3 6 30.11 1020 10 16 0.00 0.00
5:51 am 05:51 Clear 40 4.4 35 1.7 83 83 Calm 30.15 1021 10 16 0.00 0.00
6:51 am 06:51 Clear 36 2.2 33 0.6 89 89 SE 3 6 30.18 1022 10 16 0.00 0.00
7:51 am 07:51 Sunny 41 5 33 0.6 73 73 WSW 3 6 30.19 1022 10 16 0.00 0.00
8:51 am 08:51 Sunny 51 10.6 38 3.3 61 61 ENE 3 6 30.18 1022 10 16 0.00 0.00
9:51 am 09:51 Sunny 57 13.9 28 -2.2 33 33 ESE 14 22 30.20 1023 10 16 0.00 0.00
10:51 am 10:51 Sunny 61 16.1 33 0.6 35 35 SE 12 19 30.17 1022 10 16 0.00 0.00
11:51 am 11:51 Sunny 65 18.3 35 1.7 33 33 SSE 10 17 30.16 1021 10 16 0.00 0.00
12:51 pm 12:51 Sunny 68 20 31 -0.6 25 25 SSE 8 13 30.13 1020 10 16 0.00 0.00
1:51 pm 13:51 Sunny 70 21.1 29 -1.7 22 22 VRB 3 6 30.10 1019 10 16 0.00 0.00
2:51 pm 14:51 Sunny 72 22.2 30 -1.1 21 21 E 3 6 30.07 1018 10 16 0.00 0.00
3:51 pm 15:51 Sunny 74 23.3 29 -1.7 19 19 S 3 6 30.06 1018 10 16 0.00 0.00
4:51 pm 16:51 Sunny 73 22.8 31 -0.6 21 21 SW 6 9 30.05 1018 10 16 0.00 0.00
5:51 pm 17:51 Sunny 68 20 35 1.7 30 30 SW 5 7 30.06 1018 10 16 0.00 0.00
6:51 pm 18:51 Clear 61 16.1 39 3.9 44 44 NE 7 11 30.10 1019 10 16 0.00 0.00
7:51 pm 19:51 Clear 58 14.4 39 3.9 50 50 SSE 6 9 30.12 1020 10 16 0.00 0.00
8:51 pm 20:51 Clear 56 13.3 36 2.2 47 47 ESE 5 7 30.12 1020 10 16 0.00 0.00
9:51 pm 21:51 Clear 55 12.8 35 1.7 47 47 E 10 17 30.12 1020 10 16 0.00 0.00
10:51 pm 22:51 Clear 53 11.7 34 1.1 48 48 ESE 9 15 30.12 1020 10 16 0.00 0.00
11:51 pm 23:51 Clear 55 12.8 31 -0.6 40 40 ESE 10 17 30.12 1020 10 16 0.00 0.00

Powered by AerisWeather